Regional Weather Roundup
Issued by NWS Cleveland, OH

Home | Current Version | Previous Version | Text Only | Print | Product List | Glossary On
Versions: 1 2 3 4 5 6 7 8 9 10 11 12 13 14 15 16 17 18 19 20 21 22 23 24 25 26 27 28 29 30 31 32 33 34 35 36 37 38 39 40 41 42 43 44 45 46 47 48 49 50
000
ASUS41 KCLE 121812
RWRCLE
OHIO REGIONAL WEATHER ROUNDUP
NATIONAL WEATHER SERVICE WILMINGTON, OH
200 PM EDT WED AUG 12 2020

NOTE: "FAIR" INDICATES FEW OR NO CLOUDS BELOW 12,000 FEET WITH NO
SIGNIFICANT WEATHER AND/OR OBSTRUCTIONS TO VISIBILITY.

OHZ001>008-015>018-024>027-034-035-043-044-121900-
   NORTHWEST OHIO

CITY           SKY/WX    TMP DP  RH WIND       PRES   REMARKS
DEFIANCE       FAIR      83  56  39 E9        30.12S
FINDLAY        FAIR      83  56  39 E8        30.10S
TOLEDO EXPRESS FAIR      83  55  38 VRB7      30.12R
TOLEDO EXEC    FAIR      81  56  42 NE8       30.13S
LIMA           FAIR      79  63  57 E7        30.11S
$$

OHZ009>014-019>023-028>033-038-089-121900-
   NORTHEAST OHIO

CITY           SKY/WX    TMP DP  RH WIND       PRES   REMARKS
CLE-HOPKINS    PTSUNNY   80  58  46 N13       30.13S
CLE-LAKEFRONT  FAIR      80  59  48 N13       30.10S
CUY CO. ARPT   PTSUNNY   81  57  44 E6        30.12S
LORAIN-ELYRIA  FAIR      81  56  42 NE9       30.12S
ASHTABULA      FAIR      79  54  41 NE5       30.13F
AKRON-CANTON   PTSUNNY   83  67  58 NE7       30.11F
WOOSTER        PTSUNNY   80  66  62 N6        30.12S
MANSFIELD      FAIR      82  65  56 N8        30.12S
YOUNGSTOWN     CLOUDY    80  59  48 N9        30.12F
$$

OHZ042-051>053-060>062-070>072-077>081-121900-
  SOUTHWEST OHIO

CITY           SKY/WX    TMP DP  RH WIND       PRES   REMARKS
CINC-COVINGTON CLOUDY    83  67  58 VRB3      30.08S
CINC-LUNKEN    FAIR      84  70  62 NE3       30.07S
HAMILTON       FAIR      84  70  62 E5        30.08S
DAYTON         PTSUNNY   82  66  58 VRB3      30.11S
WRIGHT-PAT AFB PTSUNNY   82  67  59 N5        30.09S
DAYTON GENERAL PTSUNNY   84  69  60 N5        30.08F
WILMINGTON     FAIR      81  71  71 SE5       30.09S
$$

OHZ036-037-039>041-045>050-054>059-063>069-073>076-082>088-121900-
  CENTRAL AND SOUTHEAST OHIO

CITY           SKY/WX    TMP DP  RH WIND       PRES   REMARKS
COLUMBUS       PTSUNNY   85  63  47 CALM      30.07F
OSU AIRPORT    FAIR      84  62  47 CALM      30.09S
BOLTON FIELD   PTSUNNY   82  68  61 S8        30.09S
RICKENBACK AFB FAIR      82  67  59 CALM      30.08S
NEWARK         FAIR      88  66  48 CALM      30.08S HX  90
MARION         FAIR      81  68  64 NE8       30.11S
LANCASTER      PTSUNNY   84  67  56 E3        30.08F
ZANESVILLE     FAIR      85  68  56 CALM      30.08F
NEW PHILLY     CLOUDY    85  66  53 CALM      30.09F
$$




USA.gov is the U.S. government's official web portal to all federal, state and local government web resources and services.